| time (UTC) | temp F | wind direction | speed MPH | gust MPH | rain 1hr in | rain 24hr in | rain mn in | humidity % | barometer mb |
| 20260505234234 | 48 | 113 | 1.0 | 3.0 | 0.00 | 0.00 | 0.00 | 93 | 1006.9 |
| 20260505233235 | 48 | 180 | 0.0 | 2.0 | 0.00 | 0.00 | 0.00 | 93 | 1007.0 |
| 20260505232222 | 48 | 135 | 0.0 | 2.0 | 0.00 | 0.00 | 0.00 | 92 | 1007.0 |
| 20260505231707 | 48 | 180 | 0.0 | 2.0 | 0.00 | 0.00 | 0.00 | 92 | 1007.5 |
| 20260505230222 | 48 | 315 | 0.0 | 0.0 | 0.00 | 0.00 | 0.00 | 92 | 1007.5 |
| 20260505225221 | 48 | 315 | 1.0 | 2.0 | 0.00 | 0.00 | 0.00 | 92 | 1007.8 |
| 20260505224709 | 48 | 23 | 1.0 | 2.0 | 0.00 | 0.00 | 0.00 | 91 | 1007.8 |
| 20260505223216 | 48 | 135 | 0.0 | 2.0 | 0.00 | 0.00 | 0.00 | 91 | 1007.8 |
| 20260505222212 | 48 | 90 | 1.0 | 5.0 | 0.00 | 0.00 | 0.00 | 91 | 1007.8 |
| 20260505221208 | 49 | 0 | 1.0 | 2.0 | 0.00 | 0.00 | 0.00 | 90 | 1007.9 |
| 20260505220207 | 49 | 293 | 1.0 | 0.0 | 0.00 | 0.00 | 0.00 | 89 | 1007.9 |
| 20260505215322 | 49 | 23 | 2.0 | 7.0 | 0.00 | 0.00 | 0.35 | 90 | 1008.1 |
| 20260505214320 | 49 | 158 | 1.0 | 3.0 | 0.00 | 0.00 | 0.35 | 90 | 1008.1 |
| 20260505213320 | 49 | 293 | 1.0 | 3.0 | 0.00 | 0.00 | 0.35 | 89 | 1008.2 |
| 20260505212312 | 49 | 68 | 1.0 | 3.0 | 0.00 | 0.00 | 0.35 | 89 | 1008.2 |
| 20260505211308 | 50 | 338 | 1.0 | 4.0 | 0.00 | 0.00 | 0.35 | 88 | 1008.3 |
| 20260505210308 | 50 | 23 | 1.0 | 4.0 | 0.00 | 0.00 | 0.35 | 88 | 1008.3 |
| 20260505205308 | 50 | 23 | 1.0 | 2.0 | 0.00 | 0.00 | 0.35 | 88 | 1008.3 |
| 20260505204309 | 51 | 315 | 1.0 | 4.0 | 0.00 | 0.00 | 0.35 | 88 | 1008.3 |
| 20260505202307 | 51 | 158 | 0.0 | 2.0 | 0.00 | 0.00 | 0.35 | 88 | 1008.3 |
| 20260505200307 | 51 | 225 | 0.0 | 3.0 | 0.00 | 0.00 | 0.35 | 87 | 1008.2 |
| 20260505195306 | 51 | 248 | 0.0 | 3.0 | 0.00 | 0.00 | 0.35 | 87 | 1008.2 |
| 20260505193306 | 51 | 23 | 0.0 | 4.0 | 0.00 | 0.00 | 0.35 | 87 | 1008.0 |
| 20260505192307 | 51 | 293 | 0.0 | 0.0 | 0.00 | 0.00 | 0.35 | 87 | 1008.0 |
| 20260505191745 | 52 | 45 | 0.0 | 3.0 | 0.00 | 0.00 | 0.35 | 87 | 1007.9 |
| 20260505190737 | 51 | 23 | 0.0 | 2.0 | 0.00 | 0.00 | 0.35 | 87 | 1007.9 |
| 20260505185254 | 52 | 23 | 0.0 | 2.0 | 0.00 | 0.00 | 0.35 | 87 | 1008.0 |
| 20260505184735 | 52 | 23 | 0.0 | 2.0 | 0.00 | 0.00 | 0.35 | 87 | 1008.0 |
| 20260505183253 | 52 | 23 | 0.0 | 2.0 | 0.00 | 0.00 | 0.35 | 88 | 1008.1 |
| 20260505182255 | 52 | 23 | 0.0 | 2.0 | 0.00 | 0.00 | 0.35 | 88 | 1008.1 |
| 20260505181253 | 52 | 23 | 0.0 | 0.0 | 0.00 | 0.00 | 0.35 | 88 | 1007.8 |
| 20260505180253 | 52 | 293 | 0.0 | 0.0 | 0.00 | 0.00 | 0.35 | 88 | 1007.8 |
| 20260505175252 | 52 | 315 | 0.0 | 2.0 | 0.00 | 0.00 | 0.35 | 88 | 1007.8 |
| 20260505174239 | 52 | 338 | 0.0 | 2.0 | 0.00 | 0.00 | 0.35 | 88 | 1007.8 |
| 20260505172241 | 53 | 23 | 0.0 | 2.0 | 0.00 | 0.00 | 0.35 | 88 | 1008.1 |
| 20260505171241 | 53 | 270 | 0.0 | 1.0 | 0.00 | 0.00 | 0.35 | 89 | 1008.0 |
| 20260505170239 | 53 | 23 | 0.0 | 0.0 | 0.00 | 0.00 | 0.35 | 89 | 1008.0 |
| 20260505165240 | 52 | 45 | 0.0 | 1.0 | 0.00 | 0.00 | 0.35 | 89 | 1008.0 |
| 20260505164223 | 53 | 45 | 0.0 | 0.0 | 0.00 | 0.00 | 0.35 | 88 | 1008.0 |
| 20260505163212 | 53 | 23 | 0.0 | 2.0 | 0.00 | 0.00 | 0.35 | 89 | 1008.3 |
| 20260505162209 | 53 | 23 | 0.0 | 2.0 | 0.00 | 0.00 | 0.35 | 89 | 1008.3 |
| 20260505161208 | 53 | 23 | 0.0 | 0.0 | 0.00 | 0.00 | 0.35 | 89 | 1008.2 |
| 20260505160222 | 53 | 338 | 0.0 | 0.0 | 0.00 | 0.00 | 0.35 | 89 | 1008.2 |
| 20260505153206 | 53 | 315 | 1.0 | 0.0 | 0.00 | 0.00 | 0.35 | 89 | 1008.3 |
| 20260505152253 | 53 | 338 | 0.0 | 2.0 | 0.00 | 0.00 | 0.35 | 89 | 1008.3 |
| 20260505151255 | 53 | 45 | 0.0 | 3.0 | 0.00 | 0.00 | 0.35 | 89 | 1008.1 |
| 20260505150739 | 53 | 315 | 1.0 | 3.0 | 0.00 | 0.00 | 0.35 | 89 | 1008.1 |
| 20260505140229 | 53 | 23 | 1.0 | 6.0 | 0.00 | 0.00 | 0.35 | 89 | 1008.3 |
| 20260505124221 | 52 | 23 | 1.0 | 7.0 | 0.00 | 0.00 | 0.35 | 93 | 1008.8 |
| 20260505123225 | 51 | 338 | 2.0 | 6.0 | 0.00 | 0.00 | 0.35 | 93 | 1008.7 |
| 20260505122650 | 51 | 45 | 1.0 | 4.0 | 0.00 | 0.00 | 0.35 | 93 | 1008.7 |
| 20260505121214 | 51 | 23 | 2.0 | 4.0 | 0.00 | 0.00 | 0.35 | 93 | 1008.9 |
| 20260505120221 | 51 | 45 | 2.0 | 7.0 | 0.00 | 0.00 | 0.35 | 93 | 1008.9 |
| 20260505115215 | 51 | 315 | 2.0 | 5.0 | 0.00 | 0.00 | 0.35 | 93 | 1008.9 |
| 20260505113219 | 50 | 23 | 0.0 | 2.0 | 0.00 | 0.00 | 0.35 | 93 | 1009.1 |
| 20260505112709 | 50 | 23 | 1.0 | 4.0 | 0.00 | 0.00 | 0.35 | 94 | 1009.1 |
| 20260505111642 | 50 | 23 | 0.0 | 1.0 | 0.00 | 0.00 | 0.35 | 94 | 1009.0 |
| 20260505110208 | 50 | 45 | 1.0 | 4.0 | 0.00 | 0.00 | 0.35 | 94 | 1009.0 |
| 20260505101300 | 49 | 0 | 2.0 | 3.0 | 0.00 | 0.03 | 0.35 | 95 | 1009.3 |
| 20260505100303 | 49 | 248 | 1.0 | 1.0 | 0.00 | 0.03 | 0.35 | 95 | 1009.3 |
| 20260505095258 | 49 | 293 | 2.0 | 4.0 | 0.00 | 0.03 | 0.35 | 95 | 1009.3 |
| 20260505094258 | 49 | 225 | 2.0 | 5.0 | 0.00 | 0.03 | 0.35 | 96 | 1009.3 |
| 20260505093249 | 49 | 45 | 2.0 | 5.0 | 0.00 | 0.03 | 0.35 | 96 | 1009.3 |
| 20260505092244 | 48 | 0 | 1.0 | 4.0 | 0.00 | 0.03 | 0.35 | 96 | 1009.3 |
| 20260505091724 | 48 | 90 | 2.0 | 3.0 | 0.00 | 0.03 | 0.35 | 96 | 1009.5 |
| 20260505090248 | 48 | 338 | 2.0 | 5.0 | 0.00 | 0.03 | 0.35 | 96 | 1009.5 |
| 20260505085244 | 48 | 135 | 2.0 | 5.0 | 0.00 | 0.03 | 0.35 | 96 | 1009.5 |
| 20260505084244 | 47 | 338 | 1.0 | 4.0 | 0.00 | 0.03 | 0.35 | 96 | 1009.5 |
| 20260505083247 | 47 | 135 | 1.0 | 3.0 | 0.00 | 0.03 | 0.35 | 96 | 1009.5 |
| 20260505082246 | 47 | 23 | 1.0 | 2.0 | 0.00 | 0.03 | 0.35 | 96 | 1009.5 |
| 20260505081229 | 47 | 338 | 1.0 | 4.0 | 0.00 | 0.03 | 0.35 | 96 | 1009.6 |
| 20260505080232 | 47 | 68 | 1.0 | 3.0 | 0.00 | 0.03 | 0.35 | 96 | 1009.6 |
| 20260505075229 | 47 | 68 | 1.0 | 7.0 | 0.00 | 0.03 | 0.35 | 96 | 1009.5 |
| 20260505074231 | 47 | 248 | 1.0 | 3.0 | 0.00 | 0.03 | 0.35 | 96 | 1009.5 |
| 20260505073230 | 47 | 338 | 0.0 | 3.0 | 0.03 | 0.03 | 0.35 | 96 | 1009.6 |
| 20260505072232 | 47 | 45 | 1.0 | 2.0 | 0.03 | 0.03 | 0.35 | 96 | 1009.6 |
| 20260505071230 | 47 | 45 | 1.0 | 3.0 | 0.03 | 0.03 | 0.35 | 96 | 1009.6 |
| 20260505070232 | 46 | 338 | 2.0 | 7.0 | 0.03 | 0.03 | 0.35 | 96 | 1009.6 |
| 20260505065232 | 46 | 45 | 0.0 | 3.0 | 0.03 | 0.03 | 0.35 | 96 | 1010.1 |
| 20260505064216 | 46 | 315 | 1.0 | 6.0 | 0.03 | 0.03 | 0.35 | 96 | 1010.1 |
| 20260505063217 | 46 | 23 | 2.0 | 8.0 | 0.00 | 0.00 | 0.33 | 96 | 1009.6 |
| 20260505062217 | 47 | 113 | 2.0 | 5.0 | 0.00 | 0.00 | 0.33 | 96 | 1009.6 |
| 20260505061203 | 47 | 338 | 1.0 | 4.0 | 0.00 | 0.00 | 0.33 | 96 | 1009.5 |
| 20260505060206 | 46 | 0 | 1.0 | 4.0 | 0.00 | 0.00 | 0.33 | 96 | 1009.5 |
| 20260505055202 | 47 | 23 | 2.0 | 4.0 | 0.00 | 0.00 | 0.33 | 96 | 1009.8 |
| 20260505054200 | 46 | 23 | 0.0 | 3.0 | 0.00 | 0.00 | 0.33 | 96 | 1009.8 |
| 20260505053205 | 46 | 315 | 0.0 | 4.0 | 0.00 | 0.00 | 0.33 | 96 | 1009.6 |
| 20260505052203 | 46 | 23 | 1.0 | 5.0 | 0.00 | 0.00 | 0.33 | 96 | 1009.6 |
| 20260505051646 | 46 | 270 | 2.0 | 5.0 | 0.00 | 0.00 | 0.33 | 96 | 1009.5 |
| 20260505050208 | 46 | 45 | 1.0 | 3.0 | 0.00 | 0.00 | 0.33 | 96 | 1009.5 |
| 20260505041313 | 47 | 0 | 1.0 | 2.0 | 0.03 | 0.30 | 0.30 | 96 | 1009.6 |
| 20260505040307 | 47 | 23 | 0.0 | 2.0 | 0.06 | 0.30 | 0.30 | 96 | 1009.6 |
| 20260505035735 | 47 | 270 | 1.0 | 2.0 | 0.06 | 0.30 | 0.30 | 96 | 1009.6 |
| 20260505034303 | 47 | 158 | 1.0 | 4.0 | 0.06 | 0.27 | 0.27 | 96 | 1009.6 |
| 20260505033307 | 47 | 45 | 1.0 | 3.0 | 0.06 | 0.27 | 0.27 | 96 | 1009.9 |
| 20260505032740 | 48 | 158 | 1.0 | 3.0 | 0.08 | 0.27 | 0.27 | 96 | 1009.9 |
| 20260505031303 | 48 | 180 | 0.0 | 2.0 | 0.08 | 0.27 | 0.27 | 95 | 1010.0 |
| 20260505030739 | 48 | 180 | 0.0 | 2.0 | 0.08 | 0.24 | 0.24 | 96 | 1010.0 |
| 20260505025304 | 48 | 315 | 0.0 | 2.0 | 0.08 | 0.24 | 0.24 | 96 | 1010.0 |
| 20260505024302 | 48 | 270 | 1.0 | 4.0 | 0.08 | 0.22 | 0.22 | 95 | 1010.0 |
| 20260505023304 | 49 | 338 | 1.0 | 3.0 | 0.08 | 0.22 | 0.22 | 95 | 1010.1 |
| 20260505022803 | 49 | 315 | 1.0 | 3.0 | 0.08 | 0.19 | 0.19 | 95 | 1010.1 |
| 20260505021257 | 49 | 23 | 0.0 | 3.0 | 0.08 | 0.19 | 0.19 | 95 | 1010.0 |
| 20260505020258 | 49 | 45 | 0.0 | 2.0 | 0.05 | 0.16 | 0.16 | 95 | 1010.0 |
| 20260505015254 | 50 | 338 | 0.0 | 2.0 | 0.08 | 0.16 | 0.16 | 95 | 1010.2 |
| 20260505014734 | 50 | 45 | 1.0 | 4.0 | 0.05 | 0.13 | 0.13 | 95 | 1010.2 |
| 20260505013734 | 51 | 225 | 0.0 | 6.0 | 0.05 | 0.13 | 0.13 | 95 | 1010.2 |
| 20260505012736 | 51 | 23 | 0.0 | 6.0 | 0.06 | 0.11 | 0.11 | 95 | 1010.2 |
| 20260505011250 | 51 | 315 | 0.0 | 0.0 | 0.06 | 0.11 | 0.11 | 95 | 1010.3 |
| 20260505005253 | 52 | 23 | 0.0 | 3.0 | 0.03 | 0.08 | 0.08 | 94 | 1010.4 |
| 20260505004256 | 52 | 68 | 0.0 | 2.0 | 0.03 | 0.08 | 0.08 | 95 | 1010.4 |
| 20260505003256 | 52 | 338 | 0.0 | 2.0 | 0.06 | 0.08 | 0.08 | 94 | 1010.6 |
| 20260505002244 | 52 | 68 | 0.0 | 3.0 | 0.03 | 0.06 | 0.06 | 94 | 1010.6 |
| 20260505001239 | 52 | 23 | 0.0 | 0.0 | 0.03 | 0.06 | 0.06 | 94 | 1010.8 |
| 20260505000241 | 53 | 23 | 0.0 | 0.0 | 0.03 | 0.06 | 0.06 | 94 | 1010.8 |
| 20260504235237 | 53 | 0 | 0.0 | 1.0 | 0.03 | 0.06 | 0.06 | 94 | 1011.2 |